This is the latest recevied weather packets stored in our database for station/object SHLBYV-WX. If no packets are shown the sender has not sent any weather packets the latest 10 day(s).
| Time | Temp. | Humidity | Pressure | Rain* | Wind** | Luminosity | Snow |
|---|---|---|---|---|---|---|---|
| 1777899688 | 12.22° C | 71% | 974.2 hPa | 0 mm | - | - | - |
| 1777898754 | 11.11° C | 78% | 974.7 hPa | 0 mm | - | - | - |
| 1777897872 | 10.56° C | 78% | 974.8 hPa | 0 mm | - | - | - |
| 1777896954 | 10° C | 78% | 974.8 hPa | 0 mm | - | - | - |
| 1777896093 | 9.44° C | 78% | 974.8 hPa | 0 mm | - | - | - |
| 1777895154 | 8.89° C | 81% | 973.9 hPa | 0 mm | - | - | - |
| 1777894271 | 8.33° C | 85% | 974.1 hPa | 0 mm | - | - | - |
| 1777893355 | 7.78° C | 85% | 974.1 hPa | 0 mm | - | - | - |
| 1777892491 | 7.78° C | 85% | 974.1 hPa | 0 mm | - | - | - |
| 1777891555 | 7.22° C | 80% | 974.3 hPa | 0 mm | - | - | - |
| 1777890674 | 7.78° C | 83% | 974.2 hPa | 0 mm | - | - | - |
| 1777889751 | 7.78° C | 83% | 974.2 hPa | 0 mm | - | - | - |
| 1777888891 | 7.78° C | 83% | 974.2 hPa | 0 mm | - | - | - |
| 1777887954 | 7.78° C | 81% | 974.6 hPa | 0 mm | - | - | - |
| 1777887073 | 7.78° C | 79% | 974.2 hPa | 0 mm | - | - | - |
| 1777886154 | 8.33° C | 79% | 974.2 hPa | 0 mm | - | - | - |
| 1777885293 | 8.33° C | 80% | 973.7 hPa | 0 mm | - | - | - |
| 1777884354 | 8.33° C | 76% | 974.3 hPa | 0 mm | - | - | - |
| 1777883467 | 8.33° C | 76% | 974.3 hPa | 0 mm | - | - | - |
| 1777882553 | 8.33° C | 76% | 974.3 hPa | 0 mm | - | - | - |
| 1777881686 | 8.33° C | 81% | 974.5 hPa | 0 mm | - | - | - |
| 1777880753 | 8.33° C | 78% | 975.2 hPa | 0 mm | - | - | - |
| 1777879871 | 8.33° C | 78% | 975.2 hPa | 0 mm | - | - | - |
| 1777878954 | 8.33° C | 78% | 975.2 hPa | 0 mm | - | - | - |
| 1777878085 | 8.33° C | 78% | 975.2 hPa | 0 mm | - | - | - |
* Rain latest hour (hover to see other rain measurements)
** Current wind speed in m/s (hover to see current wind gust speed)